Year,Month,Day,Hour,Minute,Value (Times are PST for barometer in hPa)
2011,11,22,00,00,992.19
2011,11,22,00,01,992.14
2011,11,22,00,02,992.14
2011,11,22,00,03,992.14
2011,11,22,00,04,992.14
2011,11,22,00,05,992.14
2011,11,22,00,06,992.14
2011,11,22,00,07,992.14
2011,11,22,00,08,992.14
2011,11,22,00,09,992.14
2011,11,22,00,10,992.14
2011,11,22,00,11,992.14
2011,11,22,00,12,992.14
2011,11,22,00,13,992.14
2011,11,22,00,14,992.12
2011,11,22,00,15,991.70
2011,11,22,00,16,991.70
2011,11,22,00,17,991.70
2011,11,22,00,18,991.70
2011,11,22,00,19,991.70
2011,11,22,00,20,991.70
2011,11,22,00,21,991.70
2011,11,22,00,22,991.70
2011,11,22,00,23,991.70
2011,11,22,00,24,991.70
2011,11,22,00,25,991.70
2011,11,22,00,26,991.70
2011,11,22,00,27,991.70
2011,11,22,00,28,991.70
2011,11,22,00,29,991.68
2011,11,22,00,30,991.33
2011,11,22,00,31,991.33
2011,11,22,00,32,991.33
2011,11,22,00,33,991.33
2011,11,22,00,34,991.33
2011,11,22,00,35,991.33
2011,11,22,00,36,991.33
2011,11,22,00,37,991.33
2011,11,22,00,38,991.33
2011,11,22,00,39,991.33
2011,11,22,00,40,991.33
2011,11,22,00,41,991.33
2011,11,22,00,42,991.33
2011,11,22,00,43,991.33
2011,11,22,00,44,991.32
2011,11,22,00,45,991.06
2011,11,22,00,46,991.06
2011,11,22,00,47,991.06
2011,11,22,00,48,991.06
2011,11,22,00,49,991.06
2011,11,22,00,50,991.06
2011,11,22,00,51,991.06
2011,11,22,00,52,991.06
2011,11,22,00,53,991.06
2011,11,22,00,54,991.06
2011,11,22,00,55,991.06
2011,11,22,00,56,991.06
2011,11,22,00,57,991.06
2011,11,22,00,58,991.06
2011,11,22,00,59,991.04
2011,11,22,01,00,990.69
2011,11,22,01,01,990.69
2011,11,22,01,02,990.69
2011,11,22,01,03,990.69
2011,11,22,01,04,990.69
2011,11,22,01,05,990.69
2011,11,22,01,06,990.69
2011,11,22,01,07,990.69
2011,11,22,01,08,990.69
2011,11,22,01,09,990.69
2011,11,22,01,10,990.69
2011,11,22,01,11,990.69
2011,11,22,01,12,990.69
2011,11,22,01,13,990.69
2011,11,22,01,14,990.68
2011,11,22,01,15,990.49
2011,11,22,01,16,990.49
2011,11,22,01,17,990.49
2011,11,22,01,18,990.49
2011,11,22,01,19,990.49
2011,11,22,01,20,990.49
2011,11,22,01,21,990.49
2011,11,22,01,22,990.49
2011,11,22,01,23,990.49
2011,11,22,01,24,990.49
2011,11,22,01,25,990.49
2011,11,22,01,26,990.49
2011,11,22,01,27,990.49
2011,11,22,01,28,990.49
2011,11,22,01,29,990.47
2011,11,22,01,30,990.15
2011,11,22,01,31,990.15
2011,11,22,01,32,990.15
2011,11,22,01,33,990.15
2011,11,22,01,34,990.15
2011,11,22,01,35,990.15
2011,11,22,01,36,990.15
2011,11,22,01,37,990.15
2011,11,22,01,38,990.15
2011,11,22,01,39,990.15
2011,11,22,01,40,990.15
2011,11,22,01,41,990.15
2011,11,22,01,42,990.15
2011,11,22,01,43,990.15
2011,11,22,01,44,990.14
2011,11,22,01,45,989.91
2011,11,22,01,46,989.91
2011,11,22,01,47,989.91
2011,11,22,01,48,989.91
2011,11,22,01,49,989.91
2011,11,22,01,50,989.91
2011,11,22,01,51,989.91
2011,11,22,01,52,989.91
2011,11,22,01,53,989.91
2011,11,22,01,54,989.91
2011,11,22,01,55,989.91
2011,11,22,01,56,989.91
2011,11,22,01,57,989.91
2011,11,22,01,58,989.91
2011,11,22,01,59,989.89
2011,11,22,02,00,989.47
2011,11,22,02,01,989.47
2011,11,22,02,02,989.47
2011,11,22,02,03,989.47
2011,11,22,02,04,989.47
2011,11,22,02,05,989.47
2011,11,22,02,06,989.47
2011,11,22,02,07,989.47
2011,11,22,02,08,989.47
2011,11,22,02,09,989.47
2011,11,22,02,10,989.47
2011,11,22,02,11,989.47
2011,11,22,02,12,989.47
2011,11,22,02,13,989.47
2011,11,22,02,14,989.45
2011,11,22,02,15,989.03
2011,11,22,02,16,989.03
2011,11,22,02,17,989.03
2011,11,22,02,18,989.03
2011,11,22,02,19,989.03
2011,11,22,02,20,989.03
2011,11,22,02,21,989.03
2011,11,22,02,22,989.03
2011,11,22,02,23,989.03
2011,11,22,02,24,989.03
2011,11,22,02,25,989.03
2011,11,22,02,26,989.03
2011,11,22,02,27,989.03
2011,11,22,02,28,989.03
2011,11,22,02,29,989.03
2011,11,22,02,30,988.59
2011,11,22,02,31,988.59
2011,11,22,02,32,988.59
2011,11,22,02,33,988.59
2011,11,22,02,34,988.59
2011,11,22,02,35,988.59
2011,11,22,02,36,988.59
2011,11,22,02,37,988.59
2011,11,22,02,38,988.59
2011,11,22,02,39,988.59
2011,11,22,02,40,988.59
2011,11,22,02,41,988.59
2011,11,22,02,42,988.59
2011,11,22,02,43,988.59
2011,11,22,02,44,988.58
2011,11,22,02,45,988.39
2011,11,22,02,46,988.39
2011,11,22,02,47,988.39
2011,11,22,02,48,988.39
2011,11,22,02,49,988.39
2011,11,22,02,50,988.39
2011,11,22,02,51,988.39
2011,11,22,02,52,988.39
2011,11,22,02,53,988.39
2011,11,22,02,54,988.39
2011,11,22,02,55,988.39
2011,11,22,02,56,988.39
2011,11,22,02,57,988.39
2011,11,22,02,58,988.39
2011,11,22,02,59,988.37
2011,11,22,03,00,988.05
2011,11,22,03,01,988.05
2011,11,22,03,02,988.05
2011,11,22,12,13,1001.19
2011,11,22,12,14,1001.19
2011,11,22,12,15,1000.98
2011,11,22,12,16,1000.98
2011,11,22,12,17,1000.98
2011,11,22,12,18,1000.98
2011,11,22,12,19,1000.98
2011,11,22,12,20,1000.98
2011,11,22,12,21,1000.98
2011,11,22,12,22,1000.98
2011,11,22,12,23,1000.98
2011,11,22,12,24,1000.98
2011,11,22,12,25,1000.98
2011,11,22,12,26,1000.98
2011,11,22,12,27,1000.98
2011,11,22,12,28,1000.98
2011,11,22,12,29,1000.98
2011,11,22,12,30,1000.95
2011,11,22,12,31,1000.95
2011,11,22,12,32,1000.95
2011,11,22,12,33,1000.95
2011,11,22,12,34,1000.95
2011,11,22,12,35,1000.95
2011,11,22,12,36,1000.95
2011,11,22,12,37,1000.95
2011,11,22,12,38,1000.95
2011,11,22,12,39,1000.95
2011,11,22,12,40,1000.95
2011,11,22,12,41,1000.95
2011,11,22,12,42,1000.95
2011,11,22,12,43,1000.95
2011,11,22,12,44,1000.95
2011,11,22,12,45,1000.98
2011,11,22,12,46,1000.98
2011,11,22,12,47,1000.98
2011,11,22,12,48,1000.98
2011,11,22,12,49,1000.98
2011,11,22,12,50,1000.98
2011,11,22,12,51,1000.98
2011,11,22,12,52,1000.98
2011,11,22,12,53,1000.98
2011,11,22,12,54,1000.98
2011,11,22,12,55,1000.98
2011,11,22,12,56,1000.98
2011,11,22,12,57,1000.98
2011,11,22,12,58,1000.98
2011,11,22,12,59,1000.98
2011,11,22,13,00,1000.92
2011,11,22,13,01,1000.92
2011,11,22,13,02,1000.92
2011,11,22,13,03,1000.92
2011,11,22,13,04,1000.92
2011,11,22,13,05,1000.92
2011,11,22,13,06,1000.92
2011,11,22,13,07,1000.92
2011,11,22,13,08,1000.92
2011,11,22,13,09,1000.92
2011,11,22,13,10,1000.92
2011,11,22,13,11,1000.92
2011,11,22,13,12,1000.92
2011,11,22,13,13,1000.92
2011,11,22,13,14,1000.92
2011,11,22,13,15,1000.98
2011,11,22,13,16,1000.98
2011,11,22,13,17,1000.98
2011,11,22,13,18,1000.98
2011,11,22,13,19,1000.98
2011,11,22,13,20,1000.98
2011,11,22,13,21,1000.98
2011,11,22,13,22,1000.98
2011,11,22,13,23,1000.98
2011,11,22,13,24,1000.98
2011,11,22,13,25,1000.98
2011,11,22,13,26,1000.98
2011,11,22,13,27,1000.98
2011,11,22,13,28,1000.98
2011,11,22,13,29,1000.98
2011,11,22,13,30,1000.95
2011,11,22,13,31,1000.95
2011,11,22,13,32,1000.95
2011,11,22,13,33,1000.95
2011,11,22,13,34,1000.95
2011,11,22,13,35,1000.95
2011,11,22,13,36,1000.95
2011,11,22,13,37,1000.95
2011,11,22,13,38,1000.95
2011,11,22,13,39,1000.95
2011,11,22,13,40,1000.95
2011,11,22,13,41,1000.95
2011,11,22,13,42,1000.95
2011,11,22,13,43,1000.95
2011,11,22,13,44,1000.95
2011,11,22,13,45,1000.92
2011,11,22,13,46,1000.92
2011,11,22,13,47,1000.92
2011,11,22,13,48,1000.92
2011,11,22,13,49,1000.92
2011,11,22,13,50,1000.92
2011,11,22,13,51,1000.92
2011,11,22,13,52,1000.92
2011,11,22,13,53,1000.92
2011,11,22,13,54,1000.92
2011,11,22,13,55,1000.92
2011,11,22,13,56,1000.92
2011,11,22,13,57,1000.92
2011,11,22,13,58,1000.92
2011,11,22,13,59,1000.92
2011,11,22,14,00,1000.61
2011,11,22,14,01,1000.61
2011,11,22,14,02,1000.61
2011,11,22,14,03,1000.61
2011,11,22,14,04,1000.61
2011,11,22,14,05,1000.61
2011,11,22,14,06,1000.61
2011,11,22,14,07,1000.61
2011,11,22,14,08,1000.61
2011,11,22,14,09,1000.61
2011,11,22,14,10,1000.61
2011,11,22,14,11,1000.61
2011,11,22,14,12,1000.61
2011,11,22,14,13,1000.61
2011,11,22,14,14,1000.61
2011,11,22,14,15,1000.48
2011,11,22,14,16,1000.48
2011,11,22,14,17,1000.48
2011,11,22,14,18,1000.48
2011,11,22,14,19,1000.48
2011,11,22,14,20,1000.48
2011,11,22,14,21,1000.48
2011,11,22,14,22,1000.48
2011,11,22,14,23,1000.48
2011,11,22,14,24,1000.48
2011,11,22,14,25,1000.48
2011,11,22,14,26,1000.48
2011,11,22,14,27,1000.48
2011,11,22,14,28,1000.48
2011,11,22,14,29,1000.48
2011,11,22,14,30,1000.51
2011,11,22,14,31,1000.51
2011,11,22,14,32,1000.51
2011,11,22,14,33,1000.51
2011,11,22,14,34,1000.51
2011,11,22,14,35,1000.51
2011,11,22,14,36,1000.51
2011,11,22,14,37,1000.51
2011,11,22,14,38,1000.51
2011,11,22,14,39,1000.51
2011,11,22,14,40,1000.51
2011,11,22,14,41,1000.51
2011,11,22,14,42,1000.51
2011,11,22,14,43,1000.51
2011,11,22,14,44,1000.51
2011,11,22,14,45,1000.38
2011,11,22,14,46,1000.37
2011,11,22,14,47,1000.37
2011,11,22,14,48,1000.37
2011,11,22,14,49,1000.37
2011,11,22,14,50,1000.37
2011,11,22,14,51,1000.37
2011,11,22,14,52,1000.37
2011,11,22,14,53,1000.37
2011,11,22,14,54,1000.37
2011,11,22,14,55,1000.37
2011,11,22,14,56,1000.37
2011,11,22,14,57,1000.37
2011,11,22,14,58,1000.37
2011,11,22,14,59,1000.37
2011,11,22,15,00,1000.41
2011,11,22,15,01,1000.41
2011,11,22,15,02,1000.41
2011,11,22,15,03,1000.41
2011,11,22,15,04,1000.41
2011,11,22,15,05,1000.41
2011,11,22,15,06,1000.41
2011,11,22,15,07,1000.41
2011,11,22,15,08,1000.41
2011,11,22,15,09,1000.41
2011,11,22,15,10,1000.41
2011,11,22,15,11,1000.41
2011,11,22,15,12,1000.41
2011,11,22,15,13,1000.41
2011,11,22,15,14,1000.41
2011,11,22,15,15,1000.10
2011,11,22,15,16,1000.10
2011,11,22,15,17,1000.10
2011,11,22,15,18,1000.10
2011,11,22,15,19,1000.10
2011,11,22,15,20,1000.10
2011,11,22,15,21,1000.10
2011,11,22,15,22,1000.10
2011,11,22,15,23,1000.10
2011,11,22,15,24,1000.10
2011,11,22,15,25,1000.10
2011,11,22,15,26,1000.10
2011,11,22,15,27,1000.10
2011,11,22,15,28,1000.10
2011,11,22,15,29,1000.10
2011,11,22,15,30,1000.10
2011,11,22,15,31,1000.10
2011,11,22,15,32,1000.10
2011,11,22,15,33,1000.10
2011,11,22,15,34,1000.10
2011,11,22,15,35,1000.10
2011,11,22,15,36,1000.10
2011,11,22,15,37,1000.10
2011,11,22,15,38,1000.10
2011,11,22,15,39,1000.10
2011,11,22,15,40,1000.10
2011,11,22,15,41,1000.10
2011,11,22,15,42,1000.10
2011,11,22,15,43,1000.10
2011,11,22,15,44,1000.10
2011,11,22,15,45,999.97
2011,11,22,15,46,999.97
2011,11,22,15,47,999.97
2011,11,22,15,48,999.97
2011,11,22,15,49,999.97
2011,11,22,15,50,999.97
2011,11,22,15,51,999.97
2011,11,22,15,52,999.97
2011,11,22,15,53,999.97
2011,11,22,15,54,999.97
2011,11,22,15,55,999.97
2011,11,22,15,56,999.97
2011,11,22,15,57,999.97
2011,11,22,15,58,999.97
2011,11,22,15,59,999.97
2011,11,22,16,00,999.93
2011,11,22,16,01,999.93
2011,11,22,16,02,999.93
2011,11,22,16,03,999.93
2011,11,22,16,04,999.93
2011,11,22,16,05,999.93
2011,11,22,16,06,999.93
2011,11,22,16,07,999.93
2011,11,22,16,08,999.93
2011,11,22,16,09,999.93
2011,11,22,16,10,999.93
2011,11,22,16,11,999.93
2011,11,22,16,12,999.93
2011,11,22,16,13,999.93
2011,11,22,16,14,999.93
2011,11,22,16,15,999.97
2011,11,22,16,16,999.97
2011,11,22,16,17,999.97
2011,11,22,16,18,999.97
2011,11,22,16,19,999.97
2011,11,22,16,20,999.97
2011,11,22,16,21,999.97
2011,11,22,16,22,999.97
2011,11,22,16,23,999.97
2011,11,22,16,24,999.97
2011,11,22,16,25,999.97
2011,11,22,16,26,999.97
2011,11,22,16,27,999.97
2011,11,22,16,28,999.97
2011,11,22,16,29,999.97
2011,11,22,16,30,999.93
2011,11,22,16,31,999.93
2011,11,22,16,32,999.93
2011,11,22,16,33,999.93
2011,11,22,16,34,999.93
2011,11,22,16,35,999.93
2011,11,22,16,36,999.93
2011,11,22,16,37,999.93
2011,11,22,16,38,999.93
2011,11,22,16,39,999.93
2011,11,22,16,40,999.93
2011,11,22,16,41,999.93
2011,11,22,16,42,999.93
2011,11,22,16,43,999.93
2011,11,22,16,44,999.93
2011,11,22,16,45,999.93
2011,11,22,16,46,999.93
2011,11,22,16,47,999.93
2011,11,22,16,48,999.93
2011,11,22,16,49,999.93
2011,11,22,16,50,999.93
2011,11,22,16,51,999.93
2011,11,22,16,52,999.93
2011,11,22,16,53,999.93
2011,11,22,16,54,999.93
2011,11,22,16,55,999.93
2011,11,22,16,56,999.93
2011,11,22,16,57,999.93
2011,11,22,16,58,999.93
2011,11,22,16,59,999.93
2011,11,22,17,00,999.87
2011,11,22,17,01,999.87
2011,11,22,17,02,999.87
2011,11,22,17,03,999.87
2011,11,22,17,04,999.87
2011,11,22,17,05,999.87
2011,11,22,17,06,999.87
2011,11,22,17,07,999.87
2011,11,22,17,08,999.87
2011,11,22,17,09,999.87
2011,11,22,17,10,999.87
2011,11,22,17,11,999.87
2011,11,22,17,12,999.87
2011,11,22,17,13,999.87
2011,11,22,17,14,999.87
2011,11,22,17,15,999.80
2011,11,22,17,16,999.80
2011,11,22,17,17,999.80
2011,11,22,17,18,999.80
2011,11,22,17,19,999.80
2011,11,22,17,20,999.80
2011,11,22,17,21,999.80
2011,11,22,17,22,999.80
2011,11,22,17,23,999.80
2011,11,22,17,24,999.80
2011,11,22,17,25,999.80
2011,11,22,17,26,999.80
2011,11,22,17,27,999.80
2011,11,22,17,28,999.80
2011,11,22,17,29,999.80
2011,11,22,17,30,999.39
2011,11,22,17,31,999.39
2011,11,22,17,32,999.39
2011,11,22,17,33,999.39
2011,11,22,17,34,999.39
2011,11,22,17,35,999.39
2011,11,22,17,36,999.39
2011,11,22,17,37,999.39
2011,11,22,17,38,999.39
2011,11,22,17,39,999.39
2011,11,22,17,40,999.39
2011,11,22,17,41,999.39
2011,11,22,17,42,999.39
2011,11,22,17,43,999.39
2011,11,22,17,44,999.39
2011,11,22,17,45,999.07
2011,11,22,17,46,999.05
2011,11,22,17,47,999.05
2011,11,22,17,48,999.05
2011,11,22,17,49,999.05
2011,11,22,17,50,999.05
2011,11,22,17,51,999.05
2011,11,22,17,52,999.05
2011,11,22,17,53,999.05
2011,11,22,17,54,999.05
2011,11,22,17,55,999.05
2011,11,22,17,56,999.05
2011,11,22,17,57,999.05
2011,11,22,17,58,999.05
2011,11,22,17,59,999.05
2011,11,22,18,00,998.99
2011,11,22,18,01,998.99
2011,11,22,18,02,998.99
2011,11,22,18,03,998.99
2011,11,22,18,04,998.99
2011,11,22,18,05,998.99
2011,11,22,18,06,998.99
2011,11,22,18,07,998.99
2011,11,22,18,08,998.99
2011,11,22,18,09,998.99
2011,11,22,18,10,998.99
2011,11,22,18,11,998.99
2011,11,22,18,12,998.99
2011,11,22,18,13,998.99
2011,11,22,18,14,998.99
2011,11,22,18,15,998.89
2011,11,22,18,16,998.88
2011,11,22,18,17,998.88
2011,11,22,18,18,998.88
2011,11,22,18,19,998.88
2011,11,22,18,20,998.88
2011,11,22,18,21,998.88
2011,11,22,18,22,998.88
2011,11,22,18,23,998.88
2011,11,22,18,24,998.88
2011,11,22,18,25,998.88
2011,11,22,18,26,998.88
2011,11,22,18,27,998.88
2011,11,22,18,28,998.88
2011,11,22,18,29,998.88
2011,11,22,18,30,998.56
2011,11,22,18,31,998.54
2011,11,22,18,32,998.54
2011,11,22,18,33,998.54
2011,11,22,18,34,998.54
2011,11,22,18,35,998.54
2011,11,22,18,36,998.54
2011,11,22,18,37,998.54
2011,11,22,18,38,998.54
2011,11,22,18,39,998.54
2011,11,22,18,40,998.54
2011,11,22,18,41,998.54
2011,11,22,18,42,998.54
2011,11,22,18,43,998.54
2011,11,22,18,44,998.54
2011,11,22,18,45,998.39
2011,11,22,18,46,998.38
2011,11,22,18,47,998.38
2011,11,22,18,48,998.38
2011,11,22,18,49,998.38
2011,11,22,18,50,998.38
2011,11,22,18,51,998.38
2011,11,22,18,52,998.38
2011,11,22,18,53,998.38
2011,11,22,18,54,998.38
2011,11,22,18,55,998.38
2011,11,22,18,56,998.38
2011,11,22,18,57,998.38
2011,11,22,18,58,998.38
2011,11,22,18,59,998.38
2011,11,22,19,00,998.31
2011,11,22,19,01,998.31
2011,11,22,19,02,998.31
2011,11,22,19,03,998.31
2011,11,22,19,04,998.31
2011,11,22,19,05,998.31
2011,11,22,19,06,998.31
2011,11,22,19,07,998.31
2011,11,22,19,08,998.31
2011,11,22,19,09,998.31
2011,11,22,19,10,998.31
2011,11,22,19,11,998.31
2011,11,22,19,12,998.31
2011,11,22,19,13,998.31
2011,11,22,19,14,998.31
2011,11,22,19,15,997.89
2011,11,22,19,16,997.87
2011,11,22,19,17,997.87
2011,11,22,19,18,997.87
2011,11,22,19,19,997.87
2011,11,22,19,20,997.87
2011,11,22,19,21,997.87
2011,11,22,19,22,997.87
2011,11,22,19,23,997.87
2011,11,22,19,24,997.87
2011,11,22,19,25,997.87
2011,11,22,19,26,997.87
2011,11,22,19,27,997.87
2011,11,22,19,28,997.87
2011,11,22,19,29,997.87
2011,11,22,19,30,997.39
2011,11,22,19,31,997.39
2011,11,22,19,32,997.39
2011,11,22,19,33,997.39
2011,11,22,19,34,997.39
2011,11,22,19,35,997.39
2011,11,22,19,36,997.39
2011,11,22,19,37,997.39
2011,11,22,19,38,997.39
2011,11,22,19,39,997.39
2011,11,22,19,40,997.39
2011,11,22,19,41,997.39
2011,11,22,19,42,997.39
2011,11,22,19,43,997.39
2011,11,22,19,44,997.39
2011,11,22,19,45,997.01
2011,11,22,19,46,996.99
2011,11,22,19,47,996.99
2011,11,22,19,48,996.99
2011,11,22,19,49,996.99
2011,11,22,19,50,996.99
2011,11,22,19,51,996.99
2011,11,22,19,52,996.99
2011,11,22,19,53,996.99
2011,11,22,19,54,996.99
2011,11,22,19,55,996.99
2011,11,22,19,56,996.99
2011,11,22,19,57,996.99
2011,11,22,19,58,996.99
2011,11,22,19,59,996.99
2011,11,22,20,00,996.86
2011,11,22,20,01,996.85
2011,11,22,20,02,996.85
2011,11,22,20,03,996.85
2011,11,22,20,04,996.85
2011,11,22,20,05,996.85
2011,11,22,20,06,996.85
2011,11,22,20,07,996.85
2011,11,22,20,08,996.85
2011,11,22,20,09,996.85
2011,11,22,20,10,996.85
2011,11,22,20,11,996.85
2011,11,22,20,12,996.85
2011,11,22,20,13,996.85
2011,11,22,20,14,996.85
2011,11,22,20,15,996.78
2011,11,22,20,16,996.78
2011,11,22,20,17,996.78
2011,11,22,20,18,996.78
2011,11,22,20,19,996.78
2011,11,22,20,20,996.78
2011,11,22,20,21,996.78
2011,11,22,20,22,996.78
2011,11,22,20,23,996.78
2011,11,22,20,24,996.78
2011,11,22,20,25,996.78
2011,11,22,20,26,996.78
2011,11,22,20,27,996.78
2011,11,22,20,28,996.78
2011,11,22,20,29,996.78
2011,11,22,20,30,996.27
2011,11,22,20,31,996.24
2011,11,22,20,32,996.24
2011,11,22,20,33,996.24
2011,11,22,20,34,996.24
2011,11,22,20,35,996.24
2011,11,22,20,36,996.24
2011,11,22,20,37,996.24
2011,11,22,20,38,996.24
2011,11,22,20,39,996.24
2011,11,22,20,40,996.24
2011,11,22,20,41,996.24
2011,11,22,20,42,996.24
2011,11,22,20,43,996.24
2011,11,22,20,44,996.24
2011,11,22,20,45,995.79
2011,11,22,20,46,995.77
2011,11,22,20,47,995.77
2011,11,22,20,48,995.77
2011,11,22,20,49,995.77
2011,11,22,20,50,995.77
2011,11,22,20,51,995.77
2011,11,22,20,52,995.77
2011,11,22,20,53,995.77
2011,11,22,20,54,995.77
2011,11,22,20,55,995.77
2011,11,22,20,56,995.77
2011,11,22,20,57,995.77
2011,11,22,20,58,995.77
2011,11,22,20,59,995.77
2011,11,22,21,00,995.29
2011,11,22,21,01,995.26
2011,11,22,21,02,995.26
2011,11,22,21,03,995.26
2011,11,22,21,04,995.26
2011,11,22,21,05,995.26
2011,11,22,21,06,995.26
2011,11,22,21,07,995.26
2011,11,22,21,08,995.26
2011,11,22,21,09,995.26
2011,11,22,21,10,995.26
2011,11,22,21,11,995.26
2011,11,22,21,12,995.26
2011,11,22,21,13,995.26
2011,11,22,21,14,995.26
2011,11,22,21,15,995.16
2011,11,22,21,16,995.16
2011,11,22,21,17,995.16
2011,11,22,21,18,995.16
2011,11,22,21,19,995.16
2011,11,22,21,20,995.16
2011,11,22,21,21,995.16
2011,11,22,21,22,995.16
2011,11,22,21,23,995.16
2011,11,22,21,24,995.16
2011,11,22,21,25,995.16
2011,11,22,21,26,995.16
2011,11,22,21,27,995.16
2011,11,22,21,28,995.16
2011,11,22,21,29,995.16
2011,11,22,21,30,995.02
2011,11,22,21,31,995.02
2011,11,22,21,32,995.02
2011,11,22,21,33,995.02
2011,11,22,21,34,995.02
2011,11,22,21,35,995.02
2011,11,22,21,36,995.02
2011,11,22,21,37,995.02
2011,11,22,21,38,995.02
2011,11,22,21,39,995.02
2011,11,22,21,40,995.02
2011,11,22,21,41,995.02
2011,11,22,21,42,995.02
2011,11,22,21,43,995.02
2011,11,22,21,44,995.02
2011,11,22,21,45,995.18
2011,11,22,21,46,995.19
2011,11,22,21,47,995.19
2011,11,22,21,48,995.19
2011,11,22,21,49,995.19
2011,11,22,21,50,995.19
2011,11,22,21,51,995.19
2011,11,22,21,52,995.19
2011,11,22,21,53,995.19
2011,11,22,21,54,995.19
2011,11,22,21,55,995.19
2011,11,22,21,56,995.19
2011,11,22,21,57,995.19
2011,11,22,21,58,995.19
2011,11,22,21,59,995.19
2011,11,22,22,00,994.77
2011,11,22,22,01,994.75
2011,11,22,22,02,994.75
2011,11,22,22,03,994.75
2011,11,22,22,04,994.75
2011,11,22,22,05,994.75
2011,11,22,22,06,994.75
2011,11,22,22,07,994.75
2011,11,22,22,08,994.75
2011,11,22,22,09,994.75
2011,11,22,22,10,994.75
2011,11,22,22,11,994.75
2011,11,22,22,12,994.75
2011,11,22,22,13,994.75
2011,11,22,22,14,994.75
2011,11,22,22,15,994.21
2011,11,22,22,16,994.18
2011,11,22,22,17,994.18
2011,11,22,22,18,994.18
2011,11,22,22,19,994.18
2011,11,22,22,20,994.18
2011,11,22,22,21,994.18
2011,11,22,22,22,994.18
2011,11,22,22,23,994.18
2011,11,22,22,24,994.18
2011,11,22,22,25,994.18
2011,11,22,22,26,994.18
2011,11,22,22,27,994.18
2011,11,22,22,28,994.18
2011,11,22,22,29,994.18
2011,11,22,22,30,993.98
2011,11,22,22,31,993.97
2011,11,22,22,32,993.97
2011,11,22,22,33,993.97
2011,11,22,22,34,993.97
2011,11,22,22,35,993.97
2011,11,22,22,36,993.97
2011,11,22,22,37,993.97
2011,11,22,22,38,993.97
2011,11,22,22,39,993.97
2011,11,22,22,40,993.97
2011,11,22,22,41,993.97
2011,11,22,22,42,993.97
2011,11,22,22,43,993.97
2011,11,22,22,44,993.97
2011,11,22,22,45,993.69
2011,11,22,22,46,993.67
2011,11,22,22,47,993.67
2011,11,22,22,48,993.67
2011,11,22,22,49,993.67
2011,11,22,22,50,993.67
2011,11,22,22,51,993.67
2011,11,22,22,52,993.67
2011,11,22,22,53,993.67
2011,11,22,22,54,993.67
2011,11,22,22,55,993.67
2011,11,22,22,56,993.67
2011,11,22,22,57,993.67
2011,11,22,22,58,993.67
2011,11,22,22,59,993.67
2011,11,22,23,00,993.18
2011,11,22,23,01,993.16
2011,11,22,23,02,993.16
2011,11,22,23,03,993.16
2011,11,22,23,04,993.16
2011,11,22,23,05,993.16
2011,11,22,23,06,993.16
2011,11,22,23,07,993.16
2011,11,22,23,08,993.16
2011,11,22,23,09,993.16
2011,11,22,23,10,993.16
2011,11,22,23,11,993.16
2011,11,22,23,12,993.16
2011,11,22,23,13,993.16
2011,11,22,23,14,993.16
2011,11,22,23,15,993.29
2011,11,22,23,16,993.30
2011,11,22,23,17,993.30
2011,11,22,23,18,993.30
2011,11,22,23,19,993.30
2011,11,22,23,20,993.30
2011,11,22,23,21,993.30
2011,11,22,23,22,993.30
2011,11,22,23,23,993.30
2011,11,22,23,24,993.30
2011,11,22,23,25,993.30
2011,11,22,23,26,993.30
2011,11,22,23,27,993.30
2011,11,22,23,28,993.30
2011,11,22,23,29,993.30
2011,11,22,23,30,993.17
2011,11,22,23,31,993.16
2011,11,22,23,32,993.16
2011,11,22,23,33,993.16
2011,11,22,23,34,993.16
2011,11,22,23,35,993.16
2011,11,22,23,36,993.16
2011,11,22,23,37,993.16
2011,11,22,23,38,993.16
2011,11,22,23,39,993.16
2011,11,22,23,40,993.16
2011,11,22,23,41,993.16
2011,11,22,23,42,993.16
2011,11,22,23,43,993.16
2011,11,22,23,44,993.16
2011,11,22,23,45,992.88
2011,11,22,23,46,992.86
2011,11,22,23,47,992.86
2011,11,22,23,48,992.86
2011,11,22,23,49,992.86
2011,11,22,23,50,992.86
2011,11,22,23,51,992.86
2011,11,22,23,52,992.86
2011,11,22,23,53,992.86
2011,11,22,23,54,992.86
2011,11,22,23,55,992.86
2011,11,22,23,56,992.86
2011,11,22,23,57,992.86
2011,11,22,23,58,992.86
2011,11,22,23,59,992.86
